Content
SEND FEEDBACK

Daily
Averages
Monthly
Summary
Turkey

BIRECIK, TURKEY


Home > Middle East > Turkey
Elevation: 1138 feet     Latitude: 37 00N     Longitude: 038 00E

WEATHER
 
SELECT A DAY
Number of Records: 206,992;   Date Range: 7/1/96 - 7/26/14
 
SHARE

PRINT THIS DATA

[ ← Previous Day ]
WEATHER ALMANAC - FEBRUARY 28, 2013
[ Next Day → ]
[ °C ]   °F
Weather ElementAverageHighLow
Temperature45 °F51 °F (2:00 pm)37.4 °F (11:50 pm)
Dewpoint41.3 °F45 °F (8:00 am)35.6 °F (10:50 pm)
Humidity86.7 %100 % (4:20 am)72 % (2:00 pm)
Barometer29.84 in29.89 in (12:50 am)29.80 in (1:20 pm)
Wind Speed7.8 mph18.4 mph (5:50 pm)
Weather ElementAverage
Visibility5 mi
Wind DirectionSSW (207.3 °)

Weather ElementTotal
Precipitation---
Heating Degree Days20.8 (Base 65)
Averaged from 51 records on February 28, 2013
WEATHER CONDITIONS BREAKOUT
WIND DIRECTION BREAKOUT
WEATHER BY HOUR - FEBRUARY 28, 2013
[ °C ]   °F
Local TimeTemperatureDewpointHumidityBarometerVisibilityWind DirectionWind SpeedGust SpeedPrecipitationEventsConditions
12:50 AM42.8 °F41.0 °F93 %29.89 in4.3 miCalmMostly Cloudy
1:20 AM44.6 °F42.8 °F93 %29.89 in4.3 miWest (280°)1.2 mphMostly Cloudy
1:50 AM44.6 °F42.8 °F93 %29.86 in4.3 miWest (260°)4.6 mphMostly Cloudy
2:00 AM46.0 °F43.0 °F85 %29.85 in2.0 miWest (260°)4.6 mphMist
2:20 AM42.8 °F41.0 °F93 %29.86 in2.5 miCalmMostly Cloudy
2:50 AM44.6 °F42.8 °F93 %29.86 in2.5 miVariable1.2 mphMostly Cloudy
3:20 AM42.8 °F41.0 °F93 %29.86 in6.2 miWest (260°)4.6 mphMostly Cloudy
3:50 AM42.8 °F41.0 °F93 %29.86 in6.2 miWSW (250°)4.6 mphMostly Cloudy
4:20 AM41.0 °F41.0 °F100 %29.86 in6.2 miWSW (250°)2.3 mphMostly Cloudy
4:50 AM42.8 °F41.0 °F93 %29.86 in6.2 miWSW (250°)4.6 mphMostly Cloudy
5:20 AM44.6 °F42.8 °F93 %29.86 in6.2 miWest (270°)6.9 mphMostly Cloudy
5:50 AM42.8 °F41.0 °F93 %29.86 in6.2 miVariable1.2 mphMostly Cloudy
6:20 AM44.6 °F42.8 °F93 %29.86 in6.2 miVariable2.3 mphMostly Cloudy
6:50 AM44.6 °F44.6 °F100 %29.86 in2.5 miVariable2.3 mphMostly Cloudy
7:20 AM46.4 °F44.6 °F93 %29.86 in2.5 miSouth (190°)5.8 mphMostly Cloudy
7:50 AM48.2 °F44.6 °F87 %29.86 in2.5 miSSW (200°)8.1 mphMostly Cloudy
8:00 AM47.0 °F45.0 °F89 %29.88 in2.0 miSSW (200°)8.1 mphMist
8:20 AM48.2 °F44.6 °F87 %29.86 in2.5 miSSW (200°)6.9 mphMostly Cloudy
8:50 AM50.0 °F44.6 °F82 %29.86 in6.2 miSSW (200°)12.7 mphMostly Cloudy
9:20 AM50.0 °F42.8 °F76 %29.86 in6.2 miSouth (180°)12.7 mphMostly Cloudy
9:50 AM50.0 °F42.8 °F76 %29.86 in6.2 miSSW (210°)17.3 mphMostly Cloudy
10:20 AM48.2 °F42.8 °F82 %29.86 in6.2 miSSW (210°)15.0 mphRainLight Rain Showers
10:50 AM46.4 °F42.8 °F87 %29.86 in2.5 miSSW (200°)13.8 mphRain-ThunderstormLight Thunderstorms and Rain
11:20 AM46.4 °F41.0 °F81 %29.86 in2.5 miSW (220°)13.8 mphRain-ThunderstormLight Thunderstorms and Rain
11:50 AM48.2 °F42.8 °F82 %29.83 in2.5 miSSW (210°)12.7 mphRain-ThunderstormLight Thunderstorms and Rain
12:20 PM48.2 °F42.8 °F82 %29.83 in6.2 miSW (230°)10.4 mphMostly Cloudy
12:50 PM48.2 °F42.8 °F82 %29.83 in6.2 miSSW (210°)11.5 mphMostly Cloudy
1:20 PM48.2 °F41.0 °F76 %29.80 in6.2 miSW (220°)13.8 mphRainLight Rain Showers
1:50 PM50.0 °F44.6 °F82 %29.80 in6.2 miSSW (210°)13.8 mphMostly Cloudy
2:00 PM51.0 °F45.0 °F72 %29.81 in6.0 miSSW (210°)13.8 mphRainLight Rain Showers
2:20 PM50.0 °F42.8 °F76 %29.80 in6.2 miSW (220°)12.7 mphMostly Cloudy
2:50 PM50.0 °F42.8 °F76 %29.80 in2.5 miSW (230°)12.7 mphRain-ThunderstormLight Thunderstorms and Rain
3:20 PM44.6 °F41.0 °F87 %29.80 in6.2 miNorth (350°)11.5 mphRain-ThunderstormLight Thunderstorms and Rain
3:50 PM44.6 °F41.0 °F87 %29.83 in2.5 miNNW (340°)8.1 mphRain-ThunderstormLight Thunderstorms and Rain
4:20 PM44.6 °F41.0 °F87 %29.83 in2.5 miNNW (340°)8.1 mphRain-ThunderstormLight Thunderstorms and Rain
4:50 PM44.6 °F39.2 °F81 %29.80 in6.2 miNNW (330°)8.1 mphRain-ThunderstormLight Thunderstorms and Rain
5:20 PM42.8 °F39.2 °F87 %29.80 in6.2 miNNW (340°)4.6 mphMostly Cloudy
5:50 PM42.8 °F39.2 °F87 %29.80 in6.2 miWNW (290°)18.4 mphRainLight Rain Showers
6:20 PM42.8 °F39.2 °F87 %29.83 in6.2 miWest (270°)8.1 mphRainLight Rain Showers
6:50 PM42.8 °F39.2 °F87 %29.83 in6.2 miWest (260°)12.7 mphRainLight Rain Showers
7:20 PM42.8 °F39.2 °F87 %29.80 in6.2 miWSW (250°)8.1 mphRainLight Rain Showers
7:50 PM42.8 °F39.2 °F87 %29.80 in6.2 miWSW (240°)9.2 mphRainLight Rain Showers
8:00 PM42.0 °F39.0 °F85 %29.83 in6.0 miWSW (240°)9.2 mphRainLight Rain Showers
8:20 PM42.8 °F39.2 °F87 %29.83 in6.2 miWSW (250°)6.9 mphMostly Cloudy
8:50 PM42.8 °F39.2 °F87 %29.83 in6.2 miWest (260°)4.6 mphMostly Cloudy
9:20 PM42.8 °F39.2 °F87 %29.83 in6.2 miWSW (250°)9.2 mphMostly Cloudy
9:50 PM41.0 °F37.4 °F87 %29.83 in6.2 miWest (260°)4.6 mphMostly Cloudy
10:20 PM41.0 °F37.4 °F87 %29.83 in6.2 miSW (220°)3.5 mphMostly Cloudy
10:50 PM41.0 °F35.6 °F81 %29.83 in6.2 miVariable2.3 mphMostly Cloudy
11:20 PM41.0 °F37.4 °F87 %29.83 in6.2 miVariable1.2 mphMostly Cloudy
11:50 PM37.4 °F35.6 °F93 %29.83 in6.2 miWSW (250°)4.6 mphMostly Cloudy
Hourly data recorded from LTAJ, located miles away from Birecik, Turkey







STORIES FROM OUR PARTNERS